[[{"header":{"parameterUnit":"m.s-1","parameterCategory":1,"la1":30.2991,"la2":30.254,"lo1":-89.0895,"lo2":-89.0444,"dy":0.0017,"dx":0.0017,"nx":28,"ny":28,"refTime":"2023-10-16T03:00:00:Z","depth":0,"parameterNumber":2,"parameterNumberName":"U-component_of_WINDS"},"data":[0,0,0,0,0,0,0,0,0,0,0,0,0,0,0,0,0,0,0,0,0,0,0,0,0,0,0,0,0,0,0,0,0,0,0,0,0,0,0,0,0,0,0,0,0,0,0,0,0,0,0,0,0,0,0,0,0,0,0.9181,0.9181,0,0.9176,0.9176,0.9176,0.9175,0.9175,0.9175,0.9175,0.917,0.917,0.9169,0,0,0,0,0,0,0,0,0,0,0,0,0,0.9187,0.9187,0.9181,0.9181,0.918,0.9176,0.9176,0.9176,0.9175,0.9175,0.9175,0.9175,0.917,0.917,0.9169,0,0,0,0,0,0,0,0,0,0,0,0,0,0.9184,0.9187,0.9181,0.9179,0.9179,0.9176,0.9176,0.9176,0.9175,0.9175,0.9175,0.9175,0.917,0.917,0.9169,0.9168,0,0,0.9169,0.9169,0,0,0,0,0,0,0,0,0.9184,0.9183,0.9179,0.9179,0.9179,0.9176,0.9177,0.9173,0.9175,0.9176,0.9175,0.9175,0.9172,0.9171,0.9171,0.9167,0.9167,0.9169,0.9169,0.9168,0.9168,0,0,0,0,0,0,0,0.9184,0.9184,0.9179,0.9179,0.9179,0.9179,0.9178,0.9176,0.9174,0.9176,0.9176,0.9176,0.9172,0.9171,0.917,0.9167,0.9169,0.9168,0.9168,0.9168,0.9164,0.9164,0,0,0,0,0,0,0.9185,0.9184,0.9179,0.9179,0.9182,0.9179,0.9178,0.9177,0.9174,0.9174,0.9176,0.9176,0.9171,0.9171,0.917,0.9168,0.9168,0.9168,0.9168,0.9164,0.9164,0.9164,0,0,0,0,0,0,0.9185,0.9184,0.9179,0.9181,0.9181,0.9179,0.9177,0.9177,0.9176,0.9174,0.9173,0.9175,0.9171,0.9171,0.9169,0.9168,0.9168,0.9168,0.9164,0.9164,0.9164,0.9165,0,0,0,0,0,0,0.9185,0.9184,0.9183,0.9181,0.9181,0.9178,0.9177,0.9177,0.9176,0.9176,0.9173,0.9172,0.9171,0.9169,0.9168,0.9168,0.9168,0.9164,0.9164,0.9164,0.9165,0.9165,0.9165,0,0,0,0,0,0.9185,0.9184,0.9183,0.9183,0.918,0.9178,0.9177,0.9176,0.9176,0.9175,0.9174,0.9173,0.9169,0.9169,0.9168,0.9168,0.9164,0.9164,0.9164,0.9165,0.9165,0.9165,0,0,0,0,0,0,0.9185,0.9183,0.9183,0.9181,0.9179,0.9177,0.9176,0.9176,0.9174,0.9174,0.9172,0.9172,0.917,0.9169,0.9169,0.9166,0.9166,0.9166,0.9167,0.9167,0.9167,0.9167,0.9168,0,0,0,0,0,0.9185,0.9184,0.9182,0.918,0.918,0.9178,0.9177,0.9176,0.9175,0.9174,0.9172,0.9171,0.9169,0.9168,0.9167,0.9165,0.9164,0.9164,0.9164,0.9164,0.9164,0.9164,0.9164,0.9164,0.9164,0.9164,0,0,0.9184,0.9183,0.9182,0.918,0.9179,0.9178,0.9178,0.9176,0.9175,0.9174,0.9172,0.9171,0.9169,0.9167,0.9167,0.9166,0.9164,0.9164,0.9165,0.9164,0.9164,0.9164,0.9164,0.9164,0.9164,0.9164,0,0,0.9183,0.9182,0.918,0.9179,0.9178,0.9177,0.9177,0.9175,0.9175,0.9173,0.9172,0.9171,0.9168,0.9167,0.9166,0.9166,0.9165,0.9165,0.9165,0.9165,0.9165,0.9165,0.9165,0.9165,0.9165,0.9165,0.9165,0,0.9182,0.918,0.9179,0.9178,0.9177,0.9177,0.9176,0.9175,0.9173,0.9172,0.9172,0.917,0.9168,0.9167,0.9167,0.9166,0.9166,0.9165,0.9165,0.9165,0.9165,0.9165,0.9165,0.9165,0.9165,0.9165,0.9165,0,0.9179,0.9178,0.9177,0.9176,0.9175,0.9174,0.9173,0.9173,0.9172,0.9172,0.917,0.9169,0.9168,0.9167,0.9167,0.9166,0.9166,0.9166,0.9165,0.9165,0.9165,0.9165,0.9165,0.9165,0.9165,0.9165,0,0,0.9176,0.9175,0.9175,0.9175,0.9174,0.9173,0.9172,0.9171,0.9171,0.917,0.9169,0.9168,0.9168,0.9167,0.9166,0.9166,0.9166,0.9166,0.9166,0.9166,0.9165,0.9165,0.9165,0.9166,0.9166,0.9166,0.9166,0,0.9174,0.9172,0.9172,0.9171,0.917,0.917,0.917,0.9169,0.9169,0.9168,0.9168,0.9167,0.9167,0.9167,0.9167,0.9166,0.9166,0.9166,0.9165,0.9165,0.9165,0.9165,0.9165,0.9164,0.9165,0.9165,0.9165,0,0.9171,0.917,0.9169,0.9169,0.9169,0.9168,0.9168,0.9167,0.9167,0.9167,0.9166,0.9166,0.9166,0.9166,0.9165,0.9166,0.9166,0.9165,0.9165,0.9165,0.9165,0.9164,0.9164,0.9164,0.9165,0.9165,0.9165,0,0.9168,0.9168,0.9167,0.9167,0.9167,0.9166,0.9166,0.9166,0.9166,0.9166,0.9166,0.9165,0.9165,0.9165,0.9165,0.9165,0.9165,0.9165,0.9164,0.9164,0.9164,0.9164,0.9163,0.9164,0.9164,0.9164,0.9164,0,0.9166,0.9165,0.9166,0.9165,0.9165,0.9165,0.9164,0.9165,0.9165,0.9164,0.9165,0.9165,0.9165,0.9165,0.9165,0.9165,0.9164,0.9164,0.9164,0.9164,0.9164,0.9163,0.9163,0.9164,0.9164,0.9164,0.9164,0,0.9163,0.9163,0.9163,0.9163,0.9163,0.9163,0.9163,0.9163,0.9164,0.9163,0.9163,0.9164,0.9164,0.9164,0.9164,0.9164,0.9164,0.9164,0.9164,0.9164,0.9163,0.9163,0.9162,0.9162,0.9163,0.9163,0.9163,0,0.9161,0.916,0.9161,0.9161,0.9161,0.9161,0.9161,0.9162,0.9162,0.9163,0.9162,0.9162,0.9162,0.9163,0.9163,0.9163,0.9163,0.9163,0.9163,0.9163,0.9163,0.9163,0.9163,0.9162,0.9162,0.9162,0.9162,0,0.9157,0.9158,0.9158,0.9158,0.9158,0.9159,0.9159,0.9159,0.916,0.916,0.9161,0.9161,0.9161,0.9161,0.9162,0.9162,0.9163,0.9163,0.9163,0.9162,0.9162,0.9162,0.9163,0.9162,0.9162,0.9162,0.9162,0.9162,0.9154,0.9154,0.9155,0.9155,0.9156,0.9156,0.9156,0.9157,0.9158,0.9158,0.9159,0.9159,0.916,0.9161,0.9161,0.9162,0.9162,0.9162,0.9162,0.9161,0.9161,0.9162,0.9162,0.9162,0.9162,0.9162,0.9162,0,0.915,0.9151,0.9152,0.9153,0.9153,0.9154,0.9155,0.9155,0.9156,0.9157,0.9157,0.9158,0.9158,0.9159,0.916,0.916,0.9161,0.916,0.916,0.916,0.9161,0.9161,0.916,0.916,0.916,0.916,0.916,0.916,0.9148,0.9148,0.9149,0.915,0.9151,0.9151,0.9152,0.9152,0.9153,0.9154,0.9155,0.9156,0.9157,0.9158,0.9159,0.9159,0.9159,0.9159,0.9159,0.916,0.916,0.916,0.916,0.9159,0.9159,0.9159,0.9159,0.9159]},{"header":{"parameterUnit":"m.s-1","parameterCategory":1,"la1":30.2991,"la2":30.254,"lo1":-89.0895,"lo2":-89.0444,"dy":0.0017,"dx":0.0017,"nx":28,"ny":28,"refTime":"2023-10-16T03:00:00:Z","depth":0,"parameterNumber":3,"parameterNumberName":"V-component_of_WINDS"},"data":[0,0,0,0,0,0,0,0,0,0,0,0,0,0,0,0,0,0,0,0,0,0,0,0,0,0,0,0,0,0,0,0,0,0,0,0,0,0,0,0,0,0,0,0,0,0,0,0,0,0,0,0,0,0,0,0,0,0,-6.7198,-6.7198,0,-6.7261,-6.7262,-6.7263,-6.7199,-6.7197,-6.7194,-6.7192,-6.7251,-6.7255,-6.7259,0,0,0,0,0,0,0,0,0,0,0,0,0,-6.7018,-6.7021,-6.7198,-6.7199,-6.7199,-6.7261,-6.7262,-6.7263,-6.72,-6.7197,-6.7194,-6.7191,-6.725,-6.7255,-6.7259,0,0,0,0,0,0,0,0,0,0,0,0,0,-6.709,-6.7023,-6.7198,-6.7175,-6.7174,-6.7261,-6.7262,-6.7263,-6.72,-6.7196,-6.7193,-6.7189,-6.7249,-6.7254,-6.726,-6.737,0,0,-6.7278,-6.728,0,0,0,0,0,0,0,0,-6.7086,-6.7097,-6.7178,-6.7177,-6.7176,-6.7219,-6.722,-6.7299,-6.7201,-6.719,-6.7192,-6.7187,-6.7243,-6.7249,-6.7269,-6.7373,-6.7376,-6.7278,-6.7282,-6.7284,-6.7286,0,0,0,0,0,0,0,-6.7081,-6.7093,-6.7223,-6.7179,-6.7178,-6.7161,-6.7167,-6.7235,-6.7236,-6.7191,-6.7186,-6.7195,-6.7242,-6.7264,-6.727,-6.7376,-6.7278,-6.7283,-6.7287,-6.7289,-6.7576,-6.758,0,0,0,0,0,0,-6.7079,-6.709,-6.7221,-6.7225,-6.7121,-6.7167,-6.7174,-6.7208,-6.7236,-6.7236,-6.7198,-6.7192,-6.7255,-6.7263,-6.7272,-6.7404,-6.7284,-6.729,-6.7293,-6.7572,-6.7577,-6.7581,0,0,0,0,0,0,-6.7075,-6.7091,-6.7218,-6.7156,-6.7171,-6.7174,-6.7213,-6.7212,-6.7233,-6.7241,-6.7241,-6.722,-6.7253,-6.7264,-6.7347,-6.7405,-6.7292,-6.7298,-6.7567,-6.7574,-6.7579,-6.7669,0,0,0,0,0,0,-6.7071,-6.709,-6.7133,-6.7158,-6.7175,-6.7294,-6.7217,-6.7216,-6.7244,-6.7237,-6.7262,-6.7263,-6.7251,-6.7339,-6.7353,-6.7411,-6.7302,-6.7562,-6.757,-6.7577,-6.7661,-6.7678,-6.7692,0,0,0,0,0,-6.7064,-6.7154,-6.7136,-6.7152,-6.7228,-6.7297,-6.7307,-6.7293,-6.7249,-6.7292,-6.7297,-6.7262,-6.7397,-6.7348,-6.7363,-6.7424,-6.7558,-6.7568,-6.7577,-6.7654,-6.7675,-6.7692,0,0,0,0,0,0,-6.7134,-6.7157,-6.7137,-6.7237,-6.7266,-6.7287,-6.734,-6.7315,-6.7355,-6.7346,-6.7325,-6.7331,-6.742,-6.743,-6.7375,-6.7533,-6.747,-6.7483,-6.7524,-6.7543,-6.7558,-6.7554,-6.7307,0,0,0,0,0,-6.7162,-6.7217,-6.7234,-6.7321,-6.7337,-6.7336,-6.7365,-6.7353,-6.7381,-6.7392,-6.7403,-6.7431,-6.7479,-6.7512,-6.7556,-6.7662,-6.7667,-6.7712,-6.7727,-6.774,-6.7751,-6.781,-6.783,-6.7612,-6.7612,-6.7612,0,0,-6.7218,-6.7238,-6.7274,-6.7336,-6.7356,-6.7414,-6.7347,-6.7409,-6.7451,-6.7401,-6.7482,-6.7491,-6.752,-6.7616,-6.7658,-6.7627,-6.7813,-6.7752,-6.7762,-6.7766,-6.7821,-6.7842,-6.786,-6.7618,-6.7617,-6.7616,0,0,-6.7351,-6.7371,-6.7447,-6.7471,-6.7504,-6.7503,-6.7522,-6.7547,-6.7552,-6.7633,-6.7597,-6.7645,-6.7729,-6.7752,-6.7775,-6.792,-6.7889,-6.7934,-6.8015,-6.8072,-6.809,-6.8105,-6.8158,-6.8177,-6.7946,-6.7946,-6.7946,0,-6.7416,-6.7503,-6.7489,-6.7556,-6.7585,-6.7544,-6.7621,-6.7643,-6.7689,-6.7709,-6.7673,-6.778,-6.7796,-6.7898,-6.7933,-6.7952,-6.7973,-6.7932,-6.8089,-6.8104,-6.8118,-6.8168,-6.8187,-6.7951,-6.7951,-6.795,-6.795,0,-6.7583,-6.7644,-6.7701,-6.775,-6.7784,-6.7855,-6.7851,-6.7888,-6.7873,-6.7876,-6.7959,-6.7978,-6.8027,-6.805,-6.8034,-6.815,-6.813,-6.8092,-6.8028,-6.8144,-6.8191,-6.821,-6.7959,-6.7957,-6.7956,-6.7954,0,0,-6.776,-6.7802,-6.7824,-6.7846,-6.7881,-6.7927,-6.7996,-6.8047,-6.808,-6.8112,-6.817,-6.8244,-6.821,-6.8236,-6.8222,-6.8272,-6.8387,-6.8228,-6.8228,-6.8258,-6.8517,-6.8547,-6.8569,-6.8367,-6.8371,-6.8374,-6.8515,0,-6.7895,-6.8019,-6.8009,-6.8125,-6.8182,-6.8145,-6.8206,-6.8233,-6.8238,-6.8286,-6.829,-6.8343,-6.8293,-6.8309,-6.8357,-6.8363,-6.8439,-6.8353,-6.842,-6.8423,-6.8416,-6.8593,-6.8624,-6.8757,-6.8533,-6.8537,-6.8539,0,-6.8069,-6.8112,-6.8235,-6.8264,-6.8287,-6.8342,-6.8389,-6.8435,-6.8465,-6.8465,-6.8496,-6.8475,-6.8544,-6.8479,-6.8574,-6.8516,-6.8543,-6.855,-6.8555,-6.8561,-6.8489,-6.8605,-6.8799,-6.8819,-6.8567,-6.8565,-6.8563,0,-6.8189,-6.8276,-6.8362,-6.8382,-6.8417,-6.8457,-6.8473,-6.85,-6.8532,-6.8572,-6.8592,-6.8639,-6.8665,-6.8701,-6.8693,-6.8646,-6.8791,-6.8724,-6.8793,-6.8793,-6.8825,-6.8824,-6.9027,-6.8841,-6.8841,-6.8841,-6.884,0,-6.8341,-6.8418,-6.8416,-6.8469,-6.8554,-6.8541,-6.8626,-6.8636,-6.8662,-6.8715,-6.8685,-6.8735,-6.8721,-6.8771,-6.8764,-6.8845,-6.8856,-6.8858,-6.8856,-6.8862,-6.8862,-6.888,-6.887,-6.8846,-6.8845,-6.8844,-6.8843,0,-6.8488,-6.849,-6.8581,-6.8609,-6.8617,-6.8679,-6.8701,-6.8751,-6.8754,-6.8822,-6.8837,-6.8842,-6.8899,-6.8895,-6.8958,-6.8954,-6.9054,-6.904,-6.9045,-6.9042,-6.9112,-6.9106,-6.9334,-6.9364,-6.9158,-6.916,-6.9162,0,-6.8586,-6.8645,-6.868,-6.8715,-6.8734,-6.879,-6.8824,-6.8814,-6.8849,-6.889,-6.8935,-6.899,-6.9033,-6.9126,-6.9134,-6.9183,-6.917,-6.9247,-6.9177,-6.9182,-6.9173,-6.917,-6.9177,-6.9261,-6.9263,-6.9265,-6.9267,0,-6.876,-6.8759,-6.8809,-6.8861,-6.8902,-6.8941,-6.8977,-6.9007,-6.9,-6.9042,-6.9101,-6.9136,-6.9202,-6.9257,-6.9304,-6.9319,-6.9292,-6.9289,-6.9307,-6.9314,-6.9316,-6.9317,-6.9084,-6.9284,-6.9282,-6.9281,-6.928,-6.9279,-6.8886,-6.8938,-6.8971,-6.9028,-6.9055,-6.909,-6.9139,-6.9149,-6.92,-6.9255,-6.9245,-6.9313,-6.9342,-6.9403,-6.9423,-6.9475,-6.9447,-6.9473,-6.948,-6.9487,-6.9496,-6.9307,-6.9483,-6.9482,-6.9482,-6.9481,-6.9481,0,-6.9059,-6.908,-6.9133,-6.9186,-6.9231,-6.9205,-6.9243,-6.9283,-6.9343,-6.9374,-6.9419,-6.9488,-6.9542,-6.9555,-6.9607,-6.9646,-6.9635,-6.966,-6.9657,-6.9661,-6.9517,-6.9497,-6.9668,-6.9668,-6.9668,-6.9668,-6.9668,-6.9668,-6.9155,-6.9242,-6.9245,-6.9344,-6.9363,-6.9431,-6.9456,-6.9488,-6.9513,-6.9593,-6.9639,-6.9648,-6.9672,-6.9725,-6.9774,-6.9776,-6.9797,-6.9827,-6.9825,-6.969,-6.9671,-6.9653,-6.9634,-6.9831,-6.9831,-6.9964,-6.9966,-6.9966]}]]